Zurück zum Katalog

LEMUR-2-LAILA

AktivWetterSSO
NORAD 66776·PAYLOAD·🇺🇸 United States

Gestartet Nov 28, 2025 von Vandenberg Space Force Base

Loading…

Nächste Überflüge (nächste 24 Stunden)

TLE

AktuellSource: Space-Track

Epoche: Sep 13, 2026, 17:32 UTC

1 66776U 25276DQ  26256.73084863  .00003901  00000-0  17339-3 0  9993
2 66776  97.4103 329.3271 0001122 147.0988 213.0318 15.22101384 43910

Verfolge LEMUR-2-LAILA in Echtzeit mit AllMySat

Download on the App Store